Theta_e
352 349 346 352 351 353 353 353 354 355 355 353 353 353 352 352 352 351 352 352 350 344 345 342 346 347 349 346 348 344 346 351 351 350 349 350 352 350 345 346 343 347 345
350 350 350 351 351 352 353 355 354 355 355 354 353 352 354 353 351 352 350 352 348 344 343 348 350 347 347 352 344 352 351 351 351 351 346 358 351 350 346 346 345 345 343
350 351 350 349 350 353 354 353 355 355 356 356 355 355 355 355 350 348 349 348 349 344 346 348 350 348 349 349 346 350 351 350 348 353 349 352 357 349 348 347 347 346 343
348 348 348 348 349 350 351 352 354 355 357 356 354 355 355 352 347 346 348 348 346 346 349 349 351 350 349 349 350 351 353 353 345 351 351 351 347 353 355 348 350 349 347
346 346 347 348 350 351 352 353 354 355 354 356 356 356 353 348 346 349 347 348 352 350 349 351 351 351 350 351 352 352 353 353 349 351 348 352 351 350 351 351 349 348 351
346 347 348 349 349 350 351 353 356 356 357 359 359 356 355 355 352 352 351 352 351 351 352 352 352 352 349 350 352 352 352 354 353 353 351 350 349 346 346 349 352 349 348
347 348 350 350 351 352 352 354 358 360 360 360 360 356 355 356 356 355 351 349 351 350 349 352 351 352 352 352 352 354 354 354 352 353 350 349 350 347 343 345 349 352 349
348 349 350 350 351 352 353 353 356 360 361 361 361 360 361 358 356 356 353 354 351 352 352 353 352 353 352 352 353 352 352 350 351 352 352 352 349 350 350 349 349 357 353
347 348 349 349 350 350 350 351 355 359 360 360 361 362 361 361 360 359 358 355 353 352 353 352 352 352 351 351 352 351 351 352 352 351 351 350 346 345 347 348 346 346 350
347 348 349 349 349 350 351 353 353 357 358 359 359 360 359 361 359 358 359 359 356 354 355 354 352 352 352 352 352 351 351 351 351 348 348 351 348 345 345 345 345 349 348
347 349 349 350 353 354 353 354 354 357 359 359 361 360 360 360 359 358 358 357 358 356 355 354 354 353 352 352 351 352 351 350 350 349 348 351 351 350 346 345 345 346 346
350 353 355 357 357 358 359 359 353 345 341 340 342 344 354 358 356 356 354 352 354 355 354 355 353 353 353 352 350 352 349 349 348 349 350 349 349 351 350 348 347 348 346
356 357 358 360 358 351 343 340 339 338 337 336 336 338 337 338 343 348 351 355 355 355 354 354 356 355 353 352 353 353 352 351 351 351 351 351 350 350 350 351 350 347 348
358 356 352 346 343 342 343 343 342 341 340 339 338 339 338 337 339 341 341 342 345 348 352 354 355 355 355 355 353 353 351 351 351 351 351 350 350 351 354 353 351 351 350
355 350 346 345 344 345 344 342 341 341 340 340 340 339 341 341 342 342 343 343 343 342 343 344 347 353 354 354 354 355 353 352 351 351 351 351 352 352 352 353 354 352 351
351 347 346 344 344 343 343 341 340 340 340 341 340 340 341 343 343 343 343 344 343 343 343 343 343 344 343 343 350 351 352 353 353 352 353 353 351 350 351 352 352 350 349
347 344 344 343 343 342 341 340 339 340 340 340 340 339 340 340 339 339 339 339 340 340 341 342 343 343 343 343 342 341 342 341 346 351 352 353 353 352 351 352 350 350 348
344 343 341 342 341 340 339 339 339 340 340 339 337 338 337 337 337 338 339 339 339 339 339 339 339 340 341 340 340 340 342 341 340 341 344 351 352 352 352 351 351 352 351
342 341 340 340 339 339 339 338 337 336 336 335 336 336 336 336 336 336 337 337 338 338 339 339 339 339 340 339 339 339 340 339 339 340 340 343 347 351 351 351 350 352 351
340 339 340 339 339 338 336 336 334 334 334 336 335 335 334 334 334 333 334 335 335 336 336 337 338 338 338 338 338 338 338 338 338 338 338 340 339 341 344 346 351 350 351
339 339 337 337 337 335 334 334 334 335 334 332 332 331 330 330 330 331 331 330 331 331 333 334 334 334 334 336 337 337 337 337 337 337 337 336 337 339 339 340 342 345 348
338 337 336 335 335 334 332 333 333 331 329 329 329 328 328 328 328 328 329 328 329 332 332 331 331 331 333 335 335 336 337 336 337 336 336 337 337 336 336 339 341 343 343
336 334 334 334 333 332 331 330 330 328 327 327 326 326 326 327 328 328 328 329 328 328 328 329 329 329 330 331 332 333 335 335 335 335 337 336 335 334 334 335 336 337 341
334 333 332 331 332 330 329 328 327 326 325 326 325 326 326 325 326 326 328 329 329 330 330 331 330 329 329 331 332 333 334 332 332 334 334 334 335 335 333 333 335 338 338
330 329 330 330 330 328 328 326 325 324 325 324 324 324 325 325 324 324 325 324 325 325 324 326 327 328 328 329 328 326 326 327 328 327 329 332 334 336 337 338 339 338 339
329 330 329 329 328 327 326 324 324 323 323 324 324 324 323 323 323 323 324 323 322 321 322 323 324 324 325 323 322 322 323 326 326 325 328 332 333 333 335 338 339 338 338
Wind_Speed
13 11 17 20 24 17 16 16 15 13 12 12 12 10 10 11 11 10 9 11 11 12 10 10 11 9 9 8 6 8 10 9 8 5 7 2 5 7 5 11 5 11 10
8 12 16 14 16 13 13 10 10 12 12 10 11 9 7 6 7 8 7 9 13 13 13 12 11 10 9 8 8 9 13 15 6 3 2 2 4 7 11 7 5 9 9
17 16 16 14 9 11 10 13 13 12 12 11 9 7 6 4 4 5 11 12 15 16 16 16 13 12 12 13 11 10 9 4 10 1 4 2 3 6 3 12 9 4 10
15 14 14 13 11 11 12 12 13 12 13 13 11 10 8 5 8 9 12 14 15 16 17 15 16 15 14 17 13 10 9 6 7 7 6 8 11 3 3 1 9 10 12
16 14 16 19 18 16 13 12 11 12 12 13 11 10 11 10 9 10 12 12 13 16 16 16 17 16 15 15 12 5 6 6 8 9 6 8 9 4 5 2 8 15 15
14 12 15 12 13 12 10 14 13 13 13 13 12 11 11 8 8 9 11 12 12 14 15 15 15 15 16 14 11 11 9 8 5 9 9 4 3 5 4 2 9 14 21
14 13 13 12 13 10 8 10 13 12 12 13 11 9 11 10 8 8 10 9 10 12 12 13 13 13 15 14 12 9 9 9 8 7 8 10 9 12 17 21 19 3 19
15 14 14 13 11 9 7 7 10 11 11 11 10 9 8 8 8 8 4 9 12 12 11 12 13 13 14 15 14 13 12 13 11 10 10 11 10 13 13 12 10 4 6
15 14 13 12 11 11 9 7 6 6 7 9 9 8 8 7 8 4 3 6 5 10 11 10 13 13 15 15 16 16 15 13 11 12 13 12 13 12 11 10 15 14 8
14 14 12 12 12 12 12 10 8 5 3 3 6 7 5 6 7 7 6 5 4 7 5 9 11 13 14 15 17 18 18 17 14 15 13 10 14 13 14 9 15 16 17
13 12 12 12 10 5 6 8 6 3 1 5 7 3 2 3 4 6 7 7 8 8 10 12 13 14 16 16 18 19 19 18 19 18 16 13 16 16 17 14 15 11 16
12 11 10 10 10 10 12 11 12 11 10 8 7 6 5 2 2 5 8 9 10 10 11 12 15 16 17 16 19 20 21 21 20 19 19 18 19 20 19 19 20 13 16
12 10 11 12 14 15 14 12 11 9 8 7 7 6 5 4 3 3 5 5 7 9 10 11 13 16 18 18 19 20 22 23 22 22 22 21 22 19 21 18 19 21 20
14 13 13 15 16 15 12 9 7 7 7 8 7 7 7 7 6 5 5 6 6 8 9 10 13 14 15 17 18 20 21 23 23 23 23 22 23 22 22 23 25 21 21
17 15 14 14 15 13 10 6 4 4 5 6 7 8 7 8 8 7 7 7 8 9 10 11 11 11 12 16 18 18 21 22 24 25 25 26 27 27 26 25 24 25 24
16 16 14 16 15 12 9 5 2 3 4 5 7 8 9 9 9 10 11 11 11 12 12 12 13 13 14 8 9 13 15 19 21 23 25 27 29 27 31 30 29 28 28
17 16 15 15 13 10 6 3 0 3 5 8 10 10 11 12 12 13 13 13 14 15 15 16 16 17 17 18 18 17 16 18 19 21 24 25 27 29 30 31 33 35 36
15 13 14 14 11 9 6 2 2 4 6 9 10 10 11 12 14 14 14 14 13 14 14 16 17 19 20 20 21 21 19 21 22 23 23 23 25 27 28 24 27 28 29
15 13 11 11 8 6 3 2 4 6 8 9 8 10 11 13 13 15 15 15 16 16 16 16 17 18 20 20 21 20 21 23 24 24 25 25 24 25 28 29 28 28 28
16 10 10 10 9 4 2 3 6 6 7 8 10 11 12 13 15 15 16 16 17 18 18 18 18 20 21 21 22 23 23 25 26 26 27 30 32 32 30 28 23 26 32
16 13 10 6 4 2 1 3 4 4 6 9 10 10 11 13 14 15 15 16 18 18 18 18 19 21 23 24 23 23 23 24 26 26 26 26 26 29 30 32 29 30 29
11 10 8 6 4 1 3 4 5 7 9 10 11 11 12 12 12 13 15 16 17 17 16 17 20 20 20 17 17 18 24 25 22 23 28 29 31 24 16 19 27 27 26
12 8 7 6 4 2 3 4 5 7 9 10 12 12 12 12 12 14 14 15 14 14 14 12 15 18 17 18 21 21 13 13 23 25 25 29 35 39 36 31 28 28 23
11 8 6 4 3 2 1 3 5 6 8 8 9 10 11 13 13 13 15 15 15 14 15 15 14 15 17 18 17 17 17 20 20 20 18 21 25 27 31 33 28 20 22
8 5 5 4 4 1 2 3 5 6 7 8 9 10 10 11 12 12 12 13 15 16 18 18 17 17 17 18 24 26 26 25 26 31 27 27 25 24 24 24 22 24 22
8 6 5 5 3 3 2 3 4 6 7 8 9 10 11 11 11 14 14 12 13 17 15 15 14 15 17 20 23 24 23 24 24 24 22 25 25 26 24 23 21 23 26
Wind_Direction
135 155 190 207 210 173 183 183 190 188 192 198 203 208 214 224 225 229 217 190 200 207 213 222 240 235 243 251 254 270 267 272 243 289 73 253 254 253 226 216 208 161 205
143 194 220 191 195 178 179 178 184 194 199 208 215 221 228 245 218 226 220 213 217 221 217 230 238 233 242 234 242 260 274 249 184 113 65 342 281 258 232 225 252 171 202
170 184 185 193 160 161 171 177 190 191 196 207 216 219 224 237 160 238 233 244 240 237 226 221 229 235 227 232 229 242 271 302 312 207 147 145 219 335 164 236 238 211 217
141 163 164 155 158 155 167 174 187 190 197 201 208 211 212 200 228 230 226 235 233 233 222 228 230 224 220 240 222 231 232 242 254 274 235 233 163 164 257 26 242 227 238
144 151 157 168 163 165 164 167 179 189 199 203 214 212 226 232 232 221 228 232 230 226 223 223 224 226 224 230 240 252 226 241 255 212 245 270 97 5 84 24 303 274 231
152 155 134 143 146 154 169 162 182 197 205 209 219 225 237 232 231 224 218 228 223 216 213 214 217 223 223 226 218 236 250 256 282 302 307 264 91 99 91 49 250 229 237
152 152 157 170 161 167 188 177 185 199 207 213 222 229 235 235 242 232 219 218 208 216 210 205 207 210 213 221 222 224 238 240 245 256 268 295 210 189 199 178 238 257 250
162 166 167 170 175 174 201 221 185 206 213 219 227 237 242 253 243 217 246 215 192 204 195 204 209 215 214 213 218 224 226 229 225 230 257 280 260 236 245 240 280 229 248
170 170 168 171 175 172 174 177 175 184 205 212 221 230 234 250 291 297 249 227 225 195 190 213 214 214 215 220 220 226 231 249 223 237 233 243 265 271 266 289 291 291 296
167 160 168 173 184 192 184 178 171 191 209 220 223 222 210 237 248 257 255 278 275 234 220 213 228 227 223 220 223 231 220 235 237 243 245 264 266 271 256 244 270 294 297
170 157 169 165 181 180 134 154 166 172 105 42 39 42 268 262 240 248 251 256 250 238 227 228 232 227 230 226 226 234 245 230 230 244 263 238 252 262 273 261 254 254 270
159 155 155 153 145 139 124 107 104 101 88 80 73 61 61 77 317 288 272 270 263 250 232 232 237 241 238 232 229 229 234 234 243 243 241 246 245 235 248 268 274 273 273
153 164 147 133 120 121 125 124 111 96 89 81 69 48 37 19 8 346 335 313 295 276 269 246 244 244 242 239 235 236 238 242 242 242 243 240 245 249 250 254 262 247 236
161 160 144 142 139 132 129 128 108 84 60 47 42 30 11 5 4 350 340 324 317 307 294 280 272 258 253 253 249 245 242 243 244 244 246 244 244 244 244 248 253 264 271
169 153 154 143 143 139 140 137 112 78 47 17 3 1 349 340 332 328 325 318 316 312 305 296 292 282 266 258 255 255 256 255 254 255 255 250 245 244 241 242 246 243 250
171 159 157 157 154 153 162 155 126 48 18 342 337 339 332 330 324 318 315 309 301 296 290 285 285 284 280 323 266 256 268 266 263 261 257 256 256 253 250 247 248 247 246
175 167 165 163 153 159 158 163 47 344 334 325 322 323 321 321 320 317 312 304 299 295 289 285 281 280 279 280 288 289 281 277 273 265 263 260 253 249 245 250 247 245 242
164 167 170 153 158 161 141 148 273 299 302 304 306 314 315 315 315 314 311 309 303 297 291 287 284 282 278 278 280 282 277 275 272 271 270 264 259 259 259 255 254 247 241
159 166 156 153 139 133 145 268 291 298 297 301 316 316 313 309 309 308 309 308 303 299 296 290 285 281 280 281 281 281 273 272 271 269 267 265 266 263 259 260 257 257 251
143 148 130 156 156 157 224 297 309 318 309 334 327 325 319 312 310 307 302 304 302 296 296 299 298 296 291 283 279 278 277 275 273 272 263 257 254 258 260 262 265 259 255
142 164 166 157 147 171 331 316 314 312 342 323 321 312 309 313 305 304 309 309 303 298 295 298 297 295 292 286 281 273 268 272 277 274 273 271 266 256 257 251 251 254 262
142 169 169 167 154 69 352 318 309 338 329 324 318 318 312 309 309 306 306 308 302 298 297 306 307 307 304 302 318 308 282 268 269 279 276 281 287 291 305 270 260 261 264
160 168 160 165 157 92 359 320 342 332 331 326 322 320 317 315 316 316 308 307 307 312 304 304 311 313 316 311 308 311 321 304 281 278 283 283 279 279 285 282 274 268 260
162 151 154 147 139 73 358 351 345 336 329 326 331 332 328 328 323 321 322 329 320 320 332 322 305 304 303 302 296 307 314 312 303 294 292 291 290 278 271 272 272 261 258
136 133 139 136 116 105 53 14 352 339 335 334 334 333 330 330 328 324 317 314 309 318 317 306 303 303 305 306 312 308 304 299 295 297 293 283 274 273 273 269 266 261 252
130 126 119 115 113 100 62 21 354 346 347 344 348 344 337 335 334 330 331 331 331 325 317 324 329 324 313 315 314 312 304 295 296 297 279 274 272 271 267 261 256 254 251